Madison, WI

9:45 AM CST on February 14, 2016 (GMT -0600)
Dane County Regional-Truax

Weather History for KMSN - February, 2012

Change the Weather History Date:

Tuesday, February 14, 2012

  Actual Average Record
Temperature  
Mean Temperature 32 °F 23 °F  
Max Temperature 34 °F 31 °F 55 °F (1954)
Min Temperature 30 °F 15 °F -13 °F (1951)
Degree Days  
Heating Degree Days 33 42  
Month to date heating degree days 533 615  
Since 1 July heating degree days 4154 4928  
Cooling Degree Days 0 0  
Month to date cooling degree days 0 0  
Year to date cooling degree days 0 0  
Moisture  
Dew Point 27 °F    
Average Humidity 81    
Maximum Humidity 92    
Minimum Humidity 69    
Precipitation  
Precipitation T in 0.05 in 1.30 in (1869)
Month to date precipitation 0.15 0.65  
Year to date precipitation 1.55 1.88  
Snow  
Snow 0.10 in 0.40 in 6.60 in (1909)
Month to date snowfall 2.4 5.6  
Since 1 July snowfall 19.9 36.1  
Snow Depth 1.00 in    
Sea Level Pressure  
Sea Level Pressure 29.83 in    
Wind  
Wind Speed 5 mph (SW)    
Max Wind Speed 12 mph    
Max Gust Speed 20 mph    
Visibility 6 miles    
Events Snow    
T = Trace of Precipitation, MM = Missing Value Source: NWS Daily Summary

Daily Weather History Graph

Daily Weather History Graph

Search for Another Location

Airport or City:

Trip Planner

Search our weather history database for the weather conditions in past years. The results will help you decide how hot, cold, wet, or windy it might be!

Date:

Astronomy

Feb. 14, 2012 Rise Set
Actual Time 6:57 AM CST 5:26 PM CST
Civil Twilight 6:27 AM CST 5:55 PM CST
Nautical Twilight 5:54 AM CST 6:29 PM CST
Astronomical Twilight 5:21 AM CST 7:02 PM CST
Moon 12:45 AM CST 10:27 AM CST
Length of Visible Light 11h 27m
Length of Day
10h 29m
Waning Gibbous, 50% of the Moon is Illuminated
Feb 14
Waning Gibbous
Feb 21
New
Feb 29
First Quarter
Mar 8
Full
Mar 14
Last Quarter

Hourly Weather History & Observations

Time (CST) Temp. Windchill Dew Point Humidity Pressure Visibility Wind Dir Wind Speed Gust Speed Precip Events Conditions
12:53 AM 30.0 °F 24.1 °F 27.0 °F 88% 29.81 in 4.0 mi SSW 5.8 mph - 0.00 in Snow Light Snow
1:53 AM 30.0 °F 24.1 °F 28.0 °F 92% 29.81 in 4.0 mi South 5.8 mph - 0.00 in Snow Light Snow
2:53 AM 30.2 °F 23.4 °F 28.4 °F 93% 29.76 in 3.0 mi South 6.9 mph - N/A Snow Light Snow
3:53 AM 30.0 °F 24.1 °F 28.0 °F 92% 29.79 in 4.0 mi South 5.8 mph - 0.00 in Snow Light Snow
4:53 AM 30.0 °F 26.5 °F 28.0 °F 92% 29.79 in 4.0 mi SSW 3.5 mph - 0.00 in Snow Light Snow
5:53 AM 30.0 °F 26.5 °F 28.0 °F 92% 29.80 in 4.0 mi SW 3.5 mph - 0.00 in Snow Light Snow
6:42 AM 30.2 °F - 28.4 °F 93% 29.78 in 4.0 mi Calm Calm - 0.00 in Snow Light Snow
6:53 AM 30.0 °F - 28.0 °F 92% 29.81 in 4.0 mi Calm Calm - 0.00 in Snow Light Snow
6:59 AM 30.2 °F - 28.4 °F 93% 29.78 in 4.0 mi Calm Calm - 0.00 in Snow Light Snow
7:24 AM 30.2 °F 26.7 °F 28.4 °F 93% 29.79 in 3.0 mi SW 3.5 mph - 0.00 in Snow Light Snow
7:38 AM 30.2 °F - 28.4 °F 93% 29.79 in 2.0 mi Calm Calm - 0.00 in Snow Light Snow
7:42 AM 30.2 °F - 28.4 °F 93% 29.79 in 1.8 mi Calm Calm - 0.00 in Snow Light Snow
7:53 AM 30.0 °F - 28.0 °F 92% 29.83 in 1.8 mi Calm Calm - 0.00 in Snow Light Snow
8:05 AM 30.2 °F 26.7 °F 28.4 °F 93% 29.80 in 1.8 mi SW 3.5 mph - N/A Snow Light Snow
8:17 AM 30.2 °F - 28.4 °F 93% 29.80 in 2.0 mi Calm Calm - 0.00 in Snow Light Snow
8:38 AM 30.2 °F 25.4 °F 28.4 °F 93% 29.80 in 2.0 mi SSW 4.6 mph - 0.00 in Snow Light Snow
8:53 AM 30.9 °F 26.2 °F 28.0 °F 89% 29.83 in 2.0 mi WSW 4.6 mph - 0.00 in Snow Light Snow
9:42 AM 32.0 °F 27.5 °F 28.4 °F 87% 29.80 in 4.0 mi SW 4.6 mph - 0.00 in Snow Light Snow
9:53 AM 32.0 °F 26.4 °F 28.0 °F 85% 29.83 in 5.0 mi Variable 5.8 mph - 0.00 in Snow Light Snow
10:00 AM 32.0 °F 25.6 °F 28.4 °F 87% 29.80 in 5.0 mi WSW 6.9 mph - 0.00 in Snow Light Snow
10:45 AM 33.8 °F 29.6 °F 26.6 °F 75% 29.82 in 10.0 mi SW 4.6 mph - 0.00 in   Overcast
10:53 AM 33.1 °F 27.7 °F 27.0 °F 78% 29.84 in 10.0 mi SW 5.8 mph - 0.00 in   Overcast
11:53 AM 34.0 °F 31.0 °F 26.1 °F 73% 29.84 in 10.0 mi Variable 3.5 mph - N/A   Overcast
12:53 PM 34.0 °F 28.8 °F 27.0 °F 75% 29.83 in 10.0 mi WSW 5.8 mph - N/A   Overcast
1:53 PM 34.0 °F 31.0 °F 27.0 °F 75% 29.83 in 10.0 mi Variable 3.5 mph - N/A   Overcast
2:53 PM 34.0 °F 29.8 °F 27.0 °F 75% 29.84 in 10.0 mi SW 4.6 mph - N/A   Overcast
3:53 PM 34.0 °F 28.0 °F 26.1 °F 73% 29.86 in 10.0 mi SW 6.9 mph - N/A   Overcast
4:53 PM 34.0 °F 28.8 °F 25.0 °F 70% 29.87 in 10.0 mi SW 5.8 mph - N/A   Overcast
5:53 PM 34.0 °F 29.8 °F 26.1 °F 73% 29.88 in 10.0 mi SW 4.6 mph - N/A   Overcast
6:53 PM 34.0 °F 28.0 °F 26.1 °F 73% 29.91 in 10.0 mi SW 6.9 mph - N/A   Overcast
7:53 PM 34.0 °F 28.8 °F 27.0 °F 75% 29.91 in 10.0 mi SSW 5.8 mph - N/A   Overcast
8:53 PM 34.0 °F 27.2 °F 27.0 °F 75% 29.93 in 10.0 mi WSW 8.1 mph 17.3 mph N/A   Overcast
9:53 PM 33.1 °F 25.5 °F 27.0 °F 78% 29.94 in 10.0 mi SW 9.2 mph - N/A   Mostly Cloudy
10:53 PM 33.1 °F 27.7 °F 27.0 °F 78% 29.96 in 10.0 mi SSW 5.8 mph - N/A   Mostly Cloudy
11:53 PM 33.1 °F 26.1 °F 27.0 °F 78% 29.96 in 8.0 mi SSW 8.1 mph - N/A   Overcast